TimeEDT,TemperatureF,Dew PointF,Humidity,Sea Level PressureIn,VisibilityMPH,Wind Direction,Wind SpeedMPH,Gust SpeedMPH,PrecipitationIn,Events,Conditions,WindDirDegrees,DateUTC
12:51 AM,55.9,51.1,84,29.96,10.0,WSW,6.9,-,N/A,,Overcast,250,2012-10-02 04:51:00
1:51 AM,55.9,51.1,84,29.97,10.0,West,6.9,-,N/A,,Overcast,270,2012-10-02 05:51:00
2:51 AM,55.0,51.1,86,29.96,10.0,West,4.6,-,N/A,,Overcast,270,2012-10-02 06:51:00
3:51 AM,55.9,51.1,84,29.99,10.0,West,5.8,-,N/A,,Overcast,260,2012-10-02 07:51:00
4:51 AM,55.9,51.1,84,30.00,10.0,West,4.6,-,N/A,,Overcast,260,2012-10-02 08:51:00
5:51 AM,57.0,52.0,83,30.01,10.0,WSW,3.5,-,N/A,,Overcast,240,2012-10-02 09:51:00
6:51 AM,55.9,51.1,84,30.03,10.0,WSW,4.6,-,N/A,,Mostly Cloudy,250,2012-10-02 10:51:00
7:51 AM,60.1,52.0,75,30.04,10.0,Calm,Calm,-,N/A,,Mostly Cloudy,0,2012-10-02 11:51:00
8:51 AM,61.0,53.1,75,30.06,10.0,Calm,Calm,-,N/A,,Mostly Cloudy,0,2012-10-02 12:51:00
9:51 AM,64.0,54.0,70,30.06,10.0,Calm,Calm,-,N/A,,Mostly Cloudy,0,2012-10-02 13:51:00
10:51 AM,69.1,54.0,58,30.06,10.0,South,4.6,-,N/A,,Mostly Cloudy,180,2012-10-02 14:51:00
11:51 AM,69.1,53.1,57,30.06,10.0,SSW,6.9,-,N/A,,Mostly Cloudy,200,2012-10-02 15:51:00
12:51 PM,70.0,54.0,57,30.03,10.0,South,5.8,-,N/A,,Mostly Cloudy,170,2012-10-02 16:51:00
1:51 PM,69.1,55.9,63,30.04,10.0,SE,6.9,-,N/A,,Mostly Cloudy,140,2012-10-02 17:51:00
2:51 PM,66.9,60.1,79,30.06,7.0,SSW,8.1,-,0.00,Rain,Light Rain,200,2012-10-02 18:51:00
3:51 PM,61.0,57.0,87,30.05,6.0,SW,3.5,-,0.10,Rain,Light Rain,220,2012-10-02 19:51:00
4:51 PM,60.1,57.0,90,30.05,1.0,West,3.5,-,0.10,Rain,Rain,260,2012-10-02 20:51:00
5:51 PM,61.0,59.0,93,30.04,1.5,South,5.8,-,0.12,Rain,Light Rain,170,2012-10-02 21:51:00
6:51 PM,61.0,57.0,87,30.05,9.0,NW,3.5,-,0.01,Rain,Light Rain,310,2012-10-02 22:51:00
7:51 PM,60.1,57.9,93,30.04,5.0,Calm,Calm,-,0.01,Rain,Light Rain,0,2012-10-02 23:51:00
8:51 PM,60.1,57.9,93,30.06,3.0,NNE,4.6,-,0.00,Rain,Light Rain,20,2012-10-03 00:51:00
9:28 PM,60.8,59.0,94,30.05,2.5,North,6.9,-,0.01,Rain,Light Rain,10,2012-10-03 01:28:00
9:51 PM,60.1,59.0,96,30.07,3.0,Calm,Calm,-,0.02,Rain,Light Rain,0,2012-10-03 01:51:00
10:17 PM,60.8,59.0,94,30.05,5.0,East,3.5,-,0.00,,Overcast,90,2012-10-03 02:17:00
10:39 PM,60.8,59.0,94,30.06,5.0,Calm,Calm,-,0.00,,Overcast,0,2012-10-03 02:39:00
10:51 PM,60.1,59.0,96,30.06,6.0,NE,3.5,-,0.00,,Overcast,40,2012-10-03 02:51:00
11:51 PM,60.1,59.0,96,30.05,6.0,NE,4.6,-,0.00,Rain,Light Rain,40,2012-10-03 03:51:00